Time,TemperatureF,DewpointF,PressureIn,WindDirection,WindDirectionDegrees,WindSpeedMPH,WindSpeedGustMPH,Humidity,HourlyPrecipIn,Conditions,Clouds,dailyrainin,SoftwareType,DateUTC
2013-02-16 00:00:00,37.8,32.5,30.09,West,270,0.0,0.7,81,0.00,,,0.00,pywws,2013-02-16 00:00:00,
2013-02-16 00:10:00,37.4,32.1,30.09,SE,135,0.0,0.0,81,0.00,,,0.00,pywws,2013-02-16 00:10:00,
2013-02-16 00:21:00,36.9,31.6,30.10,WSW,248,0.0,0.0,81,0.00,,,0.00,pywws,2013-02-16 00:21:00,
2013-02-16 00:31:00,36.7,31.4,30.09,WSW,248,0.0,0.0,81,0.00,,,0.00,pywws,2013-02-16 00:31:00,
2013-02-16 00:40:00,36.3,31.1,30.09,West,270,0.0,0.0,81,0.00,,,0.00,pywws,2013-02-16 00:40:00,
2013-02-16 00:50:00,36.1,31.2,30.09,NW,315,1.6,3.1,82,0.00,,,0.00,pywws,2013-02-16 00:50:00,
2013-02-16 01:00:00,36.1,31.2,30.09,West,270,0.0,1.6,82,0.00,,,0.00,pywws,2013-02-16 01:00:00,
2013-02-16 01:11:00,35.8,30.8,30.09,West,270,0.0,1.6,82,0.00,,,0.00,pywws,2013-02-16 01:11:00,
2013-02-16 01:20:00,35.8,30.8,30.09,West,270,0.7,1.6,82,0.00,,,0.00,pywws,2013-02-16 01:20:00,
2013-02-16 01:31:00,35.8,30.8,30.09,West,270,0.0,0.0,82,0.00,,,0.00,pywws,2013-02-16 01:31:00,
2013-02-16 01:40:00,35.4,30.5,30.09,West,270,0.0,0.0,82,0.00,,,0.00,pywws,2013-02-16 01:40:00,
2013-02-16 01:50:00,35.1,30.1,30.09,West,270,0.7,2.2,82,0.00,,,0.00,pywws,2013-02-16 01:50:00,
2013-02-16 01:52:00,34.9,30.0,30.09,West,270,0.0,1.6,82,0.00,,,0.00,pywws,2013-02-16 01:52:00,
2013-02-16 02:02:00,34.5,29.6,30.09,WSW,248,0.0,0.0,82,0.00,,,0.00,pywws,2013-02-16 02:02:00,
2013-02-16 02:12:00,34.5,29.9,30.09,WSW,248,0.0,0.0,83,0.00,,,0.00,pywws,2013-02-16 02:12:00,
2013-02-16 02:20:00,34.2,29.5,30.09,NW,315,0.7,1.6,83,0.00,,,0.00,pywws,2013-02-16 02:20:00,
2013-02-16 02:31:00,34.2,29.5,30.09,NW,315,0.0,1.6,83,0.00,,,0.00,pywws,2013-02-16 02:31:00,
2013-02-16 02:40:00,34.7,30.1,30.09,West,270,0.7,2.2,83,0.00,,,0.00,pywws,2013-02-16 02:40:00,
2013-02-16 02:50:00,34.9,30.5,30.09,West,270,0.0,0.7,84,0.00,,,0.00,pywws,2013-02-16 02:50:00,
2013-02-16 03:00:00,34.9,30.5,30.09,WSW,248,0.0,1.6,84,0.00,,,0.00,pywws,2013-02-16 03:00:00,
2013-02-16 03:10:00,34.9,30.5,30.09,West,270,0.0,1.6,84,0.00,,,0.00,pywws,2013-02-16 03:10:00,
2013-02-16 03:20:00,34.9,30.5,30.09,West,270,0.7,1.6,84,0.00,,,0.00,pywws,2013-02-16 03:20:00,
2013-02-16 03:30:00,35.1,30.7,30.09,WSW,248,2.2,3.1,84,0.00,,,0.00,pywws,2013-02-16 03:30:00,
2013-02-16 03:40:00,35.2,30.9,30.09,WSW,248,0.7,1.6,84,0.00,,,0.00,pywws,2013-02-16 03:40:00,
2013-02-16 03:50:00,35.2,31.2,30.08,WSW,248,0.0,1.6,85,0.00,,,0.00,pywws,2013-02-16 03:50:00,
2013-02-16 04:00:00,35.2,31.2,30.08,WSW,248,0.0,0.0,85,0.00,,,0.00,pywws,2013-02-16 04:00:00,
2013-02-16 04:10:00,35.2,31.2,30.08,West,270,0.7,2.2,85,0.00,,,0.00,pywws,2013-02-16 04:10:00,
2013-02-16 04:20:00,35.2,31.2,30.09,West,270,0.7,1.6,85,0.00,,,0.00,pywws,2013-02-16 04:20:00,
2013-02-16 04:30:00,35.4,31.4,30.09,West,270,0.0,0.0,85,0.00,,,0.00,pywws,2013-02-16 04:30:00,
2013-02-16 04:41:00,35.4,31.4,30.08,West,270,0.0,0.0,85,0.00,,,0.00,pywws,2013-02-16 04:41:00,
2013-02-16 04:50:00,35.4,31.4,30.09,NW,315,0.0,1.6,85,0.00,,,0.00,pywws,2013-02-16 04:50:00,
2013-02-16 04:52:00,35.4,31.4,30.09,NW,315,0.0,0.0,85,0.00,,,0.00,pywws,2013-02-16 04:52:00,
2013-02-16 05:02:00,35.4,31.4,30.08,NW,315,0.0,0.0,85,0.00,,,0.00,pywws,2013-02-16 05:02:00,
2013-02-16 05:10:00,35.4,31.4,30.08,NW,315,0.0,0.0,85,0.00,,,0.00,pywws,2013-02-16 05:10:00,
2013-02-16 05:20:00,35.6,31.5,30.08,West,270,0.0,0.0,85,0.00,,,0.00,pywws,2013-02-16 05:20:00,
2013-02-16 05:22:00,35.6,31.5,30.08,West,270,0.0,0.0,85,0.00,,,0.00,pywws,2013-02-16 05:22:00,
2013-02-16 05:32:00,35.6,31.5,30.08,West,270,0.0,0.0,85,0.00,,,0.00,pywws,2013-02-16 05:32:00,
2013-02-16 05:41:00,35.6,31.5,30.08,West,270,0.0,0.0,85,0.00,,,0.00,pywws,2013-02-16 05:41:00,
2013-02-16 05:50:00,35.6,31.8,30.08,West,270,0.0,0.0,86,0.00,,,0.00,pywws,2013-02-16 05:50:00,
2013-02-16 06:00:00,36.0,32.2,30.08,West,270,0.0,0.0,86,0.00,,,0.00,pywws,2013-02-16 06:00:00,
2013-02-16 06:02:00,36.0,32.2,30.08,West,270,0.0,0.0,86,0.00,,,0.00,pywws,2013-02-16 06:02:00,
2013-02-16 06:12:00,36.0,32.2,30.08,West,270,0.0,0.0,86,0.00,,,0.00,pywws,2013-02-16 06:12:00,
2013-02-16 06:20:00,36.1,32.4,30.08,West,270,0.0,0.0,86,0.00,,,0.00,pywws,2013-02-16 06:20:00,
2013-02-16 06:30:00,36.0,32.2,30.09,West,270,0.0,0.0,86,0.00,,,0.00,pywws,2013-02-16 06:30:00,
2013-02-16 06:40:00,36.1,32.4,30.08,West,270,0.0,0.0,86,0.00,,,0.00,pywws,2013-02-16 06:40:00,
2013-02-16 06:50:00,36.0,32.2,30.07,West,270,0.0,0.7,86,0.00,,,0.00,pywws,2013-02-16 06:50:00,
2013-02-16 07:00:00,36.0,32.2,30.07,West,270,0.0,0.0,86,0.00,,,0.00,pywws,2013-02-16 07:00:00,
2013-02-16 07:10:00,36.0,32.2,30.08,West,270,0.0,0.0,86,0.00,,,0.00,pywws,2013-02-16 07:10:00,
2013-02-16 07:20:00,36.3,32.5,30.08,West,270,0.0,0.0,86,0.00,,,0.00,pywws,2013-02-16 07:20:00,
2013-02-16 07:30:00,36.5,32.7,30.08,West,270,1.6,2.2,86,0.00,,,0.00,pywws,2013-02-16 07:30:00,
2013-02-16 07:40:00,36.5,32.7,30.08,West,270,0.0,0.0,86,0.00,,,0.00,pywws,2013-02-16 07:40:00,
2013-02-16 07:50:00,36.9,33.1,30.09,NW,315,0.0,0.0,86,0.00,,,0.00,pywws,2013-02-16 07:50:00,
2013-02-16 08:01:00,37.0,33.5,30.08,NW,315,0.0,0.0,87,0.00,,,0.00,pywws,2013-02-16 08:01:00,
2013-02-16 08:10:00,37.2,33.7,30.08,West,270,0.0,0.0,87,0.00,,,0.00,pywws,2013-02-16 08:10:00,
2013-02-16 08:20:00,37.4,33.9,30.08,West,270,0.0,0.0,87,0.00,,,0.00,pywws,2013-02-16 08:20:00,
2013-02-16 08:30:00,37.6,34.1,30.09,West,270,0.0,0.0,87,0.00,,,0.00,pywws,2013-02-16 08:30:00,
2013-02-16 08:41:00,37.8,34.2,30.08,West,270,0.0,0.0,87,0.00,,,0.00,pywws,2013-02-16 08:41:00,
2013-02-16 08:50:00,38.1,34.6,30.08,West,270,0.0,0.0,87,0.00,,,0.00,pywws,2013-02-16 08:50:00,
2013-02-16 09:00:00,38.5,35.0,30.09,West,270,0.0,0.0,87,0.00,,,0.00,pywws,2013-02-16 09:00:00,
2013-02-16 09:10:00,38.8,35.3,30.09,West,270,0.0,0.0,87,0.00,,,0.00,pywws,2013-02-16 09:10:00,
2013-02-16 09:20:00,39.6,36.3,30.09,West,270,0.0,0.0,88,0.00,,,0.00,pywws,2013-02-16 09:20:00,
2013-02-16 09:30:00,40.1,36.8,30.09,West,270,0.0,0.0,88,0.00,,,0.00,pywws,2013-02-16 09:30:00,
2013-02-16 09:40:00,40.6,37.4,30.09,West,270,0.0,0.0,88,0.00,,,0.00,pywws,2013-02-16 09:40:00,
2013-02-16 09:50:00,41.2,37.9,30.09,West,270,0.0,0.0,88,0.00,,,0.00,pywws,2013-02-16 09:50:00,
2013-02-16 10:00:00,41.5,38.3,30.09,West,270,0.0,0.0,88,0.00,,,0.00,pywws,2013-02-16 10:00:00,
2013-02-16 10:10:00,42.1,38.8,30.10,West,270,0.0,0.0,88,0.00,,,0.00,pywws,2013-02-16 10:10:00,
2013-02-16 10:21:00,42.6,39.6,30.10,West,270,0.0,0.0,89,0.00,,,0.00,pywws,2013-02-16 10:21:00,
2013-02-16 10:30:00,43.2,40.1,30.10,West,270,0.0,0.0,89,0.00,,,0.00,pywws,2013-02-16 10:30:00,
2013-02-16 10:40:00,43.9,40.9,30.09,South,180,0.7,2.2,89,0.00,,,0.00,pywws,2013-02-16 10:40:00,
2013-02-16 10:50:00,44.6,41.6,30.10,SSW,202,0.7,2.2,89,0.00,,,0.00,pywws,2013-02-16 10:50:00,
2013-02-16 11:00:00,45.1,42.1,30.09,East,90,1.6,3.1,89,0.00,,,0.00,pywws,2013-02-16 11:00:00,
2013-02-16 11:10:00,45.7,42.6,30.09,East,90,0.7,2.2,89,0.00,,,0.00,pywws,2013-02-16 11:10:00,
2013-02-16 11:20:00,46.0,43.0,30.09,East,90,0.7,1.6,89,0.00,,,0.00,pywws,2013-02-16 11:20:00,
2013-02-16 11:30:00,46.4,43.3,30.09,SE,135,0.7,2.2,89,0.00,,,0.00,pywws,2013-02-16 11:30:00,
2013-02-16 11:40:00,46.6,43.5,30.09,SE,135,0.7,2.2,89,0.00,,,0.00,pywws,2013-02-16 11:40:00,
2013-02-16 11:50:00,46.9,43.9,30.09,East,90,0.7,3.1,89,0.00,,,0.00,pywws,2013-02-16 11:50:00,
2013-02-16 11:52:00,47.3,44.2,30.09,East,90,0.7,3.1,89,0.00,,,0.00,pywws,2013-02-16 11:52:00,
2013-02-16 12:02:00,47.5,44.4,30.09,SE,135,1.6,2.2,89,0.00,,,0.00,pywws,2013-02-16 12:02:00,
2013-02-16 12:10:00,47.7,44.3,30.09,East,90,2.2,3.8,88,0.00,,,0.00,pywws,2013-02-16 12:10:00,
2013-02-16 12:20:00,47.7,44.3,30.08,East,90,1.6,3.1,88,0.00,,,0.00,pywws,2013-02-16 12:20:00,
2013-02-16 12:30:00,47.8,44.2,30.08,East,90,0.7,2.2,87,0.00,,,0.00,pywws,2013-02-16 12:30:00,
2013-02-16 12:40:00,48.0,44.0,30.09,East,90,0.7,2.2,86,0.00,,,0.00,pywws,2013-02-16 12:40:00,
2013-02-16 12:50:00,48.2,43.6,30.08,East,90,0.0,1.6,84,0.00,,,0.00,pywws,2013-02-16 12:50:00,
2013-02-16 13:00:00,48.7,44.1,30.08,NE,45,0.0,1.6,84,0.00,,,0.00,pywws,2013-02-16 13:00:00,
2013-02-16 13:10:00,48.9,43.7,30.08,NE,45,0.0,1.6,82,0.00,,,0.00,pywws,2013-02-16 13:10:00,
2013-02-16 13:20:00,49.3,43.7,30.08,SE,135,0.0,0.0,81,0.00,,,0.00,pywws,2013-02-16 13:20:00,
2013-02-16 13:30:00,49.6,43.7,30.08,East,90,0.0,2.2,80,0.00,,,0.00,pywws,2013-02-16 13:30:00,
2013-02-16 13:40:00,50.2,44.3,30.07,East,90,2.2,4.5,80,0.00,,,0.00,pywws,2013-02-16 13:40:00,
2013-02-16 13:50:00,50.7,44.4,30.07,SE,135,1.6,3.1,79,0.00,,,0.00,pywws,2013-02-16 13:50:00,
2013-02-16 14:01:00,50.7,43.8,30.07,NE,45,1.6,3.8,77,0.00,,,0.00,pywws,2013-02-16 14:01:00,
2013-02-16 14:10:00,50.5,43.3,30.07,East,90,2.2,3.1,76,0.00,,,0.00,pywws,2013-02-16 14:10:00,
2013-02-16 14:20:00,50.4,42.7,30.08,East,90,1.6,3.1,75,0.00,,,0.00,pywws,2013-02-16 14:20:00,
2013-02-16 14:30:00,50.0,42.0,30.07,East,90,0.0,1.6,74,0.00,,,0.00,pywws,2013-02-16 14:30:00,
2013-02-16 14:40:00,50.0,42.4,30.08,East,90,0.7,1.6,75,0.00,,,0.00,pywws,2013-02-16 14:40:00,
2013-02-16 14:50:00,49.8,42.2,30.08,East,90,0.0,0.0,75,0.00,,,0.00,pywws,2013-02-16 14:50:00,
2013-02-16 14:52:00,49.8,41.9,30.08,SE,135,0.7,2.2,74,0.00,,,0.00,pywws,2013-02-16 14:52:00,
2013-02-16 15:02:00,49.8,41.9,30.08,East,90,0.7,2.2,74,0.00,,,0.00,pywws,2013-02-16 15:02:00,
2013-02-16 15:10:00,49.6,41.7,30.08,NE,45,2.2,3.1,74,0.00,,,0.00,pywws,2013-02-16 15:10:00,
2013-02-16 15:20:00,49.6,41.7,30.07,East,90,2.2,3.8,74,0.00,,,0.00,pywws,2013-02-16 15:20:00,
2013-02-16 15:30:00,49.5,41.5,30.07,East,90,1.6,3.8,74,0.00,,,0.00,pywws,2013-02-16 15:30:00,
2013-02-16 15:40:00,49.1,41.2,30.07,East,90,0.7,1.6,74,0.00,,,0.00,pywws,2013-02-16 15:40:00,
2013-02-16 15:51:00,48.9,41.0,30.07,ESE,112,1.6,2.2,74,0.00,,,0.00,pywws,2013-02-16 15:51:00,
2013-02-16 16:01:00,48.6,41.0,30.07,East,90,1.6,2.2,75,0.00,,,0.00,pywws,2013-02-16 16:01:00,
2013-02-16 16:10:00,48.4,40.8,30.08,East,90,0.7,1.6,75,0.00,,,0.00,pywws,2013-02-16 16:10:00,
2013-02-16 16:20:00,48.4,40.8,30.07,East,90,0.7,2.2,75,0.00,,,0.00,pywws,2013-02-16 16:20:00,
2013-02-16 16:31:00,48.2,40.7,30.07,East,90,0.0,1.6,75,0.00,,,0.00,pywws,2013-02-16 16:31:00,
2013-02-16 16:40:00,48.0,40.8,30.07,NE,45,0.0,2.2,76,0.00,,,0.00,pywws,2013-02-16 16:40:00,
2013-02-16 16:50:00,47.8,40.6,30.08,NE,45,0.0,0.0,76,0.00,,,0.00,pywws,2013-02-16 16:50:00,
2013-02-16 17:01:00,47.8,40.6,30.07,NE,45,0.0,0.0,76,0.00,,,0.00,pywws,2013-02-16 17:01:00,
2013-02-16 17:11:00,47.7,40.5,30.07,East,90,0.0,0.0,76,0.00,,,0.00,pywws,2013-02-16 17:11:00,
2013-02-16 17:21:00,47.7,40.5,30.07,East,90,0.0,0.0,76,0.00,,,0.00,pywws,2013-02-16 17:21:00,
2013-02-16 17:30:00,47.3,40.1,30.08,East,90,0.0,0.0,76,0.00,,,0.00,pywws,2013-02-16 17:30:00,
2013-02-16 17:40:00,46.9,39.8,30.08,NE,45,0.0,0.7,76,0.00,,,0.00,pywws,2013-02-16 17:40:00,
2013-02-16 17:50:00,46.8,39.9,30.09,NE,45,0.0,0.0,77,0.00,,,0.00,pywws,2013-02-16 17:50:00,
2013-02-16 18:00:00,46.6,39.8,30.08,NE,45,0.0,0.0,77,0.00,,,0.00,pywws,2013-02-16 18:00:00,
2013-02-16 18:12:00,46.2,39.4,30.09,East,90,1.6,2.2,77,0.00,,,0.00,pywws,2013-02-16 18:12:00,
2013-02-16 18:21:00,46.0,39.2,30.09,East,90,0.7,1.6,77,0.00,,,0.00,pywws,2013-02-16 18:21:00,
2013-02-16 18:32:00,45.7,39.2,30.09,East,90,0.0,0.0,78,0.00,,,0.00,pywws,2013-02-16 18:32:00,
2013-02-16 18:42:00,45.5,39.0,30.09,East,90,0.7,1.6,78,0.00,,,0.00,pywws,2013-02-16 18:42:00,
2013-02-16 18:52:00,45.3,38.9,30.09,East,90,1.6,2.2,78,0.00,,,0.00,pywws,2013-02-16 18:52:00,
2013-02-16 19:01:00,45.1,39.0,30.09,NE,45,1.6,3.1,79,0.00,,,0.00,pywws,2013-02-16 19:01:00,
2013-02-16 19:10:00,45.1,39.0,30.09,East,90,1.6,2.2,79,0.00,,,0.00,pywws,2013-02-16 19:10:00,
2013-02-16 19:20:00,45.1,39.0,30.09,East,90,0.7,2.2,79,0.00,,,0.00,pywws,2013-02-16 19:20:00,
2013-02-16 19:31:00,45.3,39.5,30.09,NE,45,0.0,0.7,80,0.00,,,0.00,pywws,2013-02-16 19:31:00,
2013-02-16 19:40:00,45.3,39.5,30.09,NE,45,0.0,0.0,80,0.00,,,0.00,pywws,2013-02-16 19:40:00,
2013-02-16 19:50:00,45.3,39.5,30.09,NE,45,0.0,0.0,80,0.00,,,0.00,pywws,2013-02-16 19:50:00,
2013-02-16 20:00:00,45.3,39.5,30.09,SE,135,0.7,1.6,80,0.00,,,0.00,pywws,2013-02-16 20:00:00,
2013-02-16 20:10:00,45.3,39.8,30.09,East,90,2.2,3.1,81,0.00,,,0.00,pywws,2013-02-16 20:10:00,
2013-02-16 20:20:00,45.5,40.0,30.08,East,90,0.0,0.0,81,0.00,,,0.00,pywws,2013-02-16 20:20:00,
2013-02-16 20:30:00,45.5,40.0,30.09,South,180,0.0,1.6,81,0.00,,,0.00,pywws,2013-02-16 20:30:00,
2013-02-16 20:40:00,45.5,40.0,30.09,WSW,248,0.0,0.0,81,0.00,,,0.00,pywws,2013-02-16 20:40:00,
2013-02-16 20:50:00,45.7,40.2,30.09,SE,135,0.7,3.1,81,0.00,,,0.00,pywws,2013-02-16 20:50:00,
2013-02-16 21:00:00,45.7,40.5,30.09,South,180,0.7,1.6,82,0.00,,,0.00,pywws,2013-02-16 21:00:00,
2013-02-16 21:11:00,45.9,40.7,30.09,South,180,0.0,1.6,82,0.00,,,0.00,pywws,2013-02-16 21:11:00,
2013-02-16 21:20:00,45.7,40.5,30.09,South,180,0.0,0.0,82,0.00,,,0.00,pywws,2013-02-16 21:20:00,
2013-02-16 21:30:00,45.7,40.5,30.09,NW,315,0.0,1.6,82,0.00,,,0.00,pywws,2013-02-16 21:30:00,
2013-02-16 21:40:00,45.7,40.5,30.10,West,270,1.6,2.2,82,0.00,,,0.00,pywws,2013-02-16 21:40:00,
2013-02-16 21:50:00,45.9,40.7,30.10,North,0,0.0,0.0,82,0.00,,,0.00,pywws,2013-02-16 21:50:00,
2013-02-16 22:00:00,45.9,40.7,30.10,North,0,0.0,0.0,82,0.00,,,0.00,pywws,2013-02-16 22:00:00,
2013-02-16 22:10:00,45.7,40.5,30.10,East,90,0.0,0.0,82,0.00,,,0.00,pywws,2013-02-16 22:10:00,
2013-02-16 22:20:00,45.7,40.5,30.10,East,90,0.0,0.0,82,0.00,,,0.00,pywws,2013-02-16 22:20:00,
2013-02-16 22:30:00,45.5,40.3,30.10,East,90,0.0,0.0,82,0.00,,,0.00,pywws,2013-02-16 22:30:00,
2013-02-16 22:40:00,45.5,40.3,30.10,East,90,0.0,0.0,82,0.00,,,0.00,pywws,2013-02-16 22:40:00,
2013-02-16 22:50:00,45.5,40.3,30.10,East,90,0.0,0.0,82,0.00,,,0.00,pywws,2013-02-16 22:50:00,
2013-02-16 22:52:00,45.5,40.3,30.10,East,90,0.0,0.0,82,0.00,,,0.00,pywws,2013-02-16 22:52:00,
2013-02-16 23:02:00,45.3,40.2,30.10,East,90,0.0,0.0,82,0.00,,,0.00,pywws,2013-02-16 23:02:00,
2013-02-16 23:10:00,45.5,40.3,30.10,East,90,0.0,0.0,82,0.00,,,0.00,pywws,2013-02-16 23:10:00,
2013-02-16 23:20:00,45.3,40.2,30.10,NE,45,0.0,0.0,82,0.00,,,0.00,pywws,2013-02-16 23:20:00,
2013-02-16 23:30:00,45.3,40.2,30.10,NE,45,0.0,0.0,82,0.00,,,0.00,pywws,2013-02-16 23:30:00,
2013-02-16 23:40:00,45.3,40.5,30.10,NE,45,0.0,0.0,83,0.00,,,0.00,pywws,2013-02-16 23:40:00,
2013-02-16 23:50:00,45.3,40.5,30.10,East,90,2.2,3.8,83,0.00,,,0.00,pywws,2013-02-16 23:50:00,